Satellite: ANTELSAT
Catalog number: 40034
Epoch time: 14233.68740893
Element set: 176
Inclination: 097.9739 deg
RA of node: 127.0499 deg
Eccentricity: 0.0062469
Arg of perigee: 359.4367 deg
Mean anomaly: 000.6783 deg
Mean motion: 14.71297568 rev/day
Decay rate: 7.01e-06 rev/day^2
Epoch rev: 923
Checksum: 328
/EX
SB KEPS @ AMSAT $ORB14233.W
Orbital Elements 14233.WEATHER
HR AMSAT ORBITAL ELEMENTS FOR WEATHER SATELLITES
FROM WA5QGD FORT WORTH,TX August 21, 2014
BID: ORB14233.W
TO ALL RADIO AMATEURS BT
Satellite: MET-2/21
Catalog number: 22782
Epoch time: 14233.30523703
Element set: 141
Inclination: 082.5489 deg
RA of node: 121.6477 deg
Eccentricity: 0.0023502
Arg of perigee: 083.7788 deg
Mean anomaly: 048.1376 deg
Mean motion: 13.83743076 rev/day
Decay rate: 1.0e-08 rev/day^2
Epoch rev: 5912
Checksum: 286
Satellite: OKEAN-4
Catalog number: 23317
Epoch time: 14233.48383575
Element set: 621
Inclination: 082.5411 deg
RA of node: 006.7004 deg
Eccentricity: 0.0019541
Arg of perigee: 239.8370 deg
Mean anomaly: 186.6267 deg
Mean motion: 14.85637370 rev/day
Decay rate: 6.75e-06 rev/day^2
Epoch rev: 7280
Checksum: 300
Satellite: NOAA-14
Catalog number: 23455
Epoch time: 14233.46992122
Element set: 866
Inclination: 098.7763 deg
RA of node: 315.7407 deg
Eccentricity: 0.0009220
Arg of perigee: 207.4670 deg
Mean anomaly: 281.0385 deg
Mean motion: 14.13983004 rev/day
Decay rate: -3.2e-07 rev/day^2
Epoch rev: 1317
Checksum: 287
Satellite: NOAA-15
Catalog number: 25338
Epoch time: 14233.47469727
Element set: 305
Inclination: 098.7565 deg
RA of node: 227.2199 deg
Eccentricity: 0.0009660
Arg of perigee: 323.2957 deg
Mean anomaly: 149.0140 deg
Mean motion: 14.25457011 rev/day
Decay rate: 8.1e-07 rev/day^2
Epoch rev: 84614
Checksum: 310
Satellite: RESURS
Catalog number: 25394
Epoch time: 14233.49106213
Element set: 731
Inclination: 098.4197 deg
RA of node: 195.1342 deg
Eccentricity: 0.0002549
Arg of perigee: 085.6057 deg
Mean anomaly: 023.4122 deg
Mean motion: 14.24396351 rev/day
Decay rate: -5.6e-07 rev/day^2
Epoch rev: 83761
Checksum: 286
Satellite: FENGYUN1
Catalog number: 25730
Epoch time: 14233.88112034
Element set: 221
Inclination: 098.9161 deg
RA of node: 194.5842 deg
Eccentricity: 0.0021867
Arg of perigee: 290.3580 deg
Mean anomaly: 122.7852 deg
Mean motion: 14.12001706 rev/day
Decay rate: 3.45e-06 rev/day^2
Epoch rev: 78679
Checksum: 288
Satellite: OKEAN-0
Catalog number: 25860
Epoch time: 14233.49666936
Element set: 334
Inclination: 098.0496 deg
RA of node: 197.0004 deg
Eccentricity: 0.0001432
Arg of perigee: 127.5667 deg
Mean anomaly: 342.9511 deg
Mean motion: 14.75347863 rev/day
Decay rate: 2.83e-06 rev/day^2
Epoch rev: 81178
Checksum: 315
Satellite: NOAA-16
Catalog number: 26536
Epoch time: 14233.79224851
Element set: 801
Inclination: 098.9847 deg
RA of node: 294.4189 deg
Eccentricity: 0.0010648
Arg of perigee: 003.9289 deg
Mean anomaly: 356.2445 deg
Mean motion: 14.13032232 rev/day
Decay rate: -2.1e-07 rev/day^2
Epoch rev: 71727
Checksum: 310
Satellite: NOAA-17
Catalog number: 27453
Epoch time: 14233.78565896
Element set: 697
Inclination: 098.3175 deg
RA of node: 230.0529 deg
Eccentricity: 0.0011488
Arg of perigee: 348.1332 deg
Mean anomaly: 012.0061 deg
Mean motion: 14.24765891 rev/day
Decay rate: 1.34e-06 rev/day^2
Epoch rev: 63202
Checksum: 306
Satellite: NOAA-18
Catalog number: 28654
Epoch time: 14233.70433337
Element set: 209
Inclination: 099.1532 deg
RA of node: 214.5357 deg
Eccentricity: 0.0015342
Arg of perigee: 079.8748 deg
Mean anomaly: 280.4631 deg
Mean motion: 14.12051892 rev/day
Decay rate: 2.25e-06 rev/day^2
Epoch rev: 47686
Checksum: 309
Satellite: NOAA-19
Catalog number: 33591
Epoch time: 14233.81852877
Element set: 350
Inclination: 098.9469 deg
RA of node: 178.6693 deg
Eccentricity: 0.0013386
Arg of perigee: 298.5028 deg
Mean anomaly: 061.5267 deg
Mean motion: 14.11750629 rev/day
Decay rate: 2.37e-06 rev/day^2
Epoch rev: 28523
Checksum: 343
/EX
SB KEPS @ AMSAT $ORB14233.M
Orbital Elements 14233.MISC
HR AMSAT ORBITAL ELEMENTS FOR MANNED AND MISCELLANEOUS SATELLITES
FROM WA5QGD FORT WORTH,TX August 21, 2014
BID: ORB14233.M
TO ALL RADIO AMATEURS BT
Satellite: HUBBLE
Catalog number: 20580
Epoch time: 14232.69922485
Element set: 80
Inclination: 028.4705 deg
RA of node: 332.9835 deg
Eccentricity: 0.0002722
Arg of perigee: 258.6546 deg
Mean anomaly: 219.9291 deg
Mean motion: 15.05631084 rev/day
Decay rate: 1.271e-05 rev/day^2
Epoch rev: 13445
Checksum: 290
Satellite: ISS
Catalog number: 25544
Epoch time: 14233.91685791
Element set: 940
Inclination: 051.6456 deg
RA of node: 133.7756 deg
Eccentricity: 0.0004503
Arg of perigee: 046.5773 deg
Mean anomaly: 052.3089 deg
Mean motion: 15.50153699 rev/day
Decay rate: 1.0269e-04 rev/day^2
Epoch rev: 90152
Checksum: 308
Satellite: CO-58
Catalog number: 28895
Epoch time: 14233.77910163
Element set: 849
Inclination: 097.8310 deg
RA of node: 072.2332 deg
Eccentricity: 0.0018133
Arg of perigee: 159.8029 deg
Mean anomaly: 200.3894 deg
Mean motion: 14.61974787 rev/day
Decay rate: 4.16e-06 rev/day^2
Epoch rev: 46983
Checksum: 341
Satellite: FALCON
Catalog number: 30776
Epoch time: 14233.80714917
Element set: 937
Inclination: 035.4290 deg
RA of node: 067.2659 deg
Eccentricity: 0.0001143
Arg of perigee: 190.7487 deg
Mean anomaly: 245.8416 deg
Mean motion: 15.16970886 rev/day
Decay rate: 5.524e-05 rev/day^2
Epoch rev: 41070
Checksum: 312
Satellite: MAST
Catalog number: 31126
Epoch time: 14233.46200609
Element set: 123
Inclination: 097.9206 deg
RA of node: 210.9762 deg
Eccentricity: 0.0093039
Arg of perigee: 150.1009 deg
Mean anomaly: 326.9658 deg
Mean motion: 14.55345097 rev/day
Decay rate: 2.49e-06 rev/day^2
Epoch rev: 38988
Checksum: 301
Satellite: CAPE1
Catalog number: 31130
Epoch time: 14233.83992908
Element set: 130
Inclination: 097.9417 deg
RA of node: 208.0708 deg
Eccentricity: 0.0099476
Arg of perigee: 167.1107 deg
Mean anomaly: 193.2669 deg
Mean motion: 14.54532973 rev/day
Decay rate: 3.08e-06 rev/day^2
Epoch rev: 38935
Checksum: 321
Satellite: COMPASS
Catalog number: 32787
Epoch time: 14233.19079924
Element set: 16
Inclination: 097.6958 deg
RA of node: 284.8527 deg
Eccentricity: 0.0012507
Arg of perigee: 330.8409 deg
Mean anomaly: 029.2109 deg
Mean motion: 14.88173187 rev/day
Decay rate: 1.415e-05 rev/day^2
Epoch rev: 34185
Checksum: 321
Satellite: AAUSAT2
Catalog number: 32788
Epoch time: 14233.43225912
Element set: 2
Inclination: 097.6970 deg
RA of node: 286.1548 deg
Eccentricity: 0.0011894
Arg of perigee: 328.0522 deg
Mean anomaly: 031.9972 deg
Mean motion: 14.88912625 rev/day
Decay rate: 1.108e-05 rev/day^2
Epoch rev: 34195
Checksum: 307
Satellite: DO-64
Catalog number: 32789
Epoch time: 14233.40992419
Element set: 43
Inclination: 097.7172 deg
RA of node: 293.2742 deg
Eccentricity: 0.0010361
Arg of perigee: 311.2261 deg
Mean anomaly: 177.3187 deg
Mean motion: 14.93946887 rev/day
Decay rate: 3.486e-05 rev/day^2
Epoch rev: 34223
Checksum: 323
Satellite: CO-66
Catalog number: 32791
Epoch time: 14233.40885020
Element set: 998
Inclination: 097.6954 deg
RA of node: 283.6917 deg
Eccentricity: 0.0013207
Arg of perigee: 334.3324 deg
Mean anomaly: 025.7235 deg
Mean motion: 14.86784714 rev/day
Decay rate: 8.14e-06 rev/day^2
Epoch rev: 34174
Checksum: 327
Satellite: RS-30
Catalog number: 32953
Epoch time: 14233.66625398
Element set: 220
Inclination: 082.5100 deg
RA of node: 160.5055 deg
Eccentricity: 0.0020083
Arg of perigee: 017.3962 deg
Mean anomaly: 342.7812 deg
Mean motion: 12.43050057 rev/day
Decay rate: 1.0e-07 rev/day^2
Epoch rev: 28339
Checksum: 257
Satellite: METEOR-M
Catalog number: 35865
Epoch time: 14233.73715575
Element set: 826
Inclination: 098.5440 deg
RA of node: 279.1441 deg
Eccentricity: 0.0001564
Arg of perigee: 274.9206 deg
Mean anomaly: 085.1798 deg
Mean motion: 14.21926970 rev/day
Decay rate: -4.4e-07 rev/day^2
Epoch rev: 25565
Checksum: 322
Satellite: RS-38
Catalog number: 35869
Epoch time: 14233.57261119
Element set: 738
Inclination: 098.5370 deg
RA of node: 278.7563 deg
Eccentricity: 0.0003524
Arg of perigee: 258.2977 deg
Mean anomaly: 225.1363 deg
Mean motion: 14.22221769 rev/day
Decay rate: 9.0e-08 rev/day^2
Epoch rev: 25566
Checksum: 332
Satellite: JUGNU
Catalog number: 37839
Epoch time: 14232.26531222
Element set: 677
Inclination: 019.9608 deg
RA of node: 226.5739 deg
Eccentricity: 0.0019027
Arg of perigee: 330.9539 deg
Mean anomaly: 148.1093 deg
Mean motion: 14.12327017 rev/day
Decay rate: 3.46e-06 rev/day^2
Epoch rev: 14762
Checksum: 299
Satellite: SRMSAT
Catalog number: 37841
Epoch time: 14232.42715380
Element set: 680
Inclination: 019.9713 deg
RA of node: 246.2064 deg
Eccentricity: 0.0011715
Arg of perigee: 270.7139 deg
Mean anomaly: 235.6159 deg
Mean motion: 14.10365450 rev/day
Decay rate: 3.16e-06 rev/day^2
Epoch rev: 14744
Checksum: 276
Satellite: RAX-2
Catalog number: 37853
Epoch time: 14233.42659848
Element set: 891
Inclination: 101.7092 deg
RA of node: 294.2119 deg
Eccentricity: 0.0214896
Arg of perigee: 227.9142 deg
Mean anomaly: 202.7382 deg
Mean motion: 14.89956371 rev/day
Decay rate: 2.916e-05 rev/day^2
Epoch rev: 15237
Checksum: 332
Satellite: AUBIESAT
Catalog number: 37854
Epoch time: 14233.21391278
Element set: 873
Inclination: 101.7137 deg
RA of node: 295.9872 deg
Eccentricity: 0.0212602
Arg of perigee: 225.3453 deg
Mean anomaly: 171.4696 deg
Mean motion: 14.91323443 rev/day
Decay rate: 3.204e-05 rev/day^2
Epoch rev: 15240
Checksum: 287
Satellite: HRBE
Catalog number: 37855
Epoch time: 14233.15918220
Element set: 882
Inclination: 101.7132 deg
RA of node: 295.1675 deg
Eccentricity: 0.0214936
Arg of perigee: 226.9774 deg
Mean anomaly: 131.3249 deg
Mean motion: 14.90600125 rev/day
Decay rate: 3.469e-05 rev/day^2
Epoch rev: 15235
Checksum: 296
